sat.trackr.live / text

‹ back to catalog

STARLINK-2568

NORAD 48406 · 2021-038BF

PAYLOAD ACTIVE UNKNOWN

§ Identity

Operator
Country
US
Launch date
2021-05-04
Launch site
AFETR
Launch vehicle
Mass (kg)
RCS (m²)

Purposes: comms

External: N2YO · Heavens-Above · Gunter

§ Orbital elements

Epoch: 2026-09-13T00:26:37.870368Z

Period
93.90 min
Inclination
53.1576°
Eccentricity
0.0002773
Mean motion
15.33601532 rev/d
Perigee alt
463.2 km
Apogee alt
467.0 km
Semi-major
6,843.2 km
B*
1.2081e-3
RAAN
183.8795°
Arg perigee
94.2479°
Mean anomaly
265.8840°
Rev number
29,610

§ Raw data

STARLINK-25681 48406U 21038BF  26256.01849387  .00039636  00000+0  12081-2 0  99972 48406  53.1576 183.8795 0002773  94.2479 265.8840 15.33601532296106

JSON: /api/v1/satellites/48406 · /tle

For live sub-satellite position, see the globe view (requires WebGL).

§ Visibility from observer

Set your observer location to see the next 7 days of passes ≥ 10°. The values pass through the URL so the page stays shareable.

No JS? Fill the form by hand. The geolocation button needs JavaScript.